Regional Weather Roundup
Issued by NWS

Home | Current Version | Previous Version | Graphics & Text | Print | Product List | Glossary On
Versions: 1 2 3 4 5 6 7 8 9 10 11 12 13 14 15 16 17 18 19 20 21 22 23 24 25 26 27 28 29 30 31 32 33 34 35 36 37 38 39 40 41 42 43 44 45 46 47 48 49 50
000
ASUS43 KLOT 211908
RWRIL

ILLINOIS REGIONAL WEATHER ROUNDUP
NATIONAL WEATHER SERVICE CHICAGO/ROMEOVILLE IL
100 PM CST SUN JAN 21 2018

NOTE: "FAIR" INDICATES FEW OR NO CLOUDS BELOW 12,000 FEET WITH NO
SIGNIFICANT WEATHER AND/OR OBSTRUCTIONS TO VISIBILITY.

* THESE STATIONS ARE NOT UNDER NWS QUALITY CONTROL. THEY ALSO MAY NOT
  REPORT WEATHER SUCH AS PRECIPITATION OR FOG.

ILZ001-002-007-009-015-016-024-212000-
NORTHWEST ILLINOIS

CITY           SKY/WX    TMP DP  RH WIND       PRES   REMARKS
MOLINE         FOG       44  43  96 E7        29.84F VSB 1
STERLING*      CLOUDY    42  41  96 E7        29.88F FOG
SAVANNA*       CLOUDY    41  38  89 E6        29.88F FOG
$$

ILZ003-004-008-010-011-017-018-212000-
NORTH CENTRAL ILLINOIS

CITY           SKY/WX    TMP DP  RH WIND       PRES   REMARKS
ROCKFORD       CLOUDY    40  37  89 E5        29.92F FOG
FREEPORT*      CLOUDY    39  37  94 E7        29.91F FOG     WCI  34
ROCHELLE*      CLOUDY    41  41  99 E3        29.89F FOG
DE KALB*       FOG       40  40  99 SE5       29.90F VSB<1/4
PERU*          CLOUDY    44  43  96 S5        29.88F FOG
$$

ILZ005-006-012>014-019>023-212000-
NORTHEAST ILLINOIS

CITY           SKY/WX    TMP DP  RH WIND       PRES   REMARKS
CHICAGO-OHARE  CLOUDY    44  41  89 SE3       29.90F FOG
CHICAGO-MIDWAY CLOUDY    45  43  93 S5        29.91F FOG
AURORA         FOG       42  41  96 E5        29.90F VSB<1/4
LANSING*       CLOUDY    45  45 100 S7        29.92F FOG
JOLIET*        CLOUDY    45  45  99 SE5       29.90F FOG
WAUKEGAN       CLOUDY    39  37  92 CALM      29.92F FOG
DUPAGE AIRPORT CLOUDY    42  42 100 SE3       29.90F FOG
KANKAKEE*      FOG      N/A N/A N/A SE3       29.92F VSB 1/4
WHEELING       CLOUDY    44  41  89 CALM      29.92F FOG
MORRIS*        CLOUDY    44  44  98 SE6       29.89F FOG
ROMEOVILLE*    CLOUDY    43  43 100 S7        29.90F FOG
NORTHERLY ISL    N/A     36  34  92 E1          N/A
$$

LMZ740>746-212000-
SOUTHERN LAKE MICHIGAN

STATION/POSITION SKY/WX   TEMP    WIND        PRES    VSBY  WAVE
                          AIR SEA DIR/SP/G                  HT/PER
                          (F)     (DEG/KT/KT) (MB)    (MI)  (FT/S)
HARRISON CRIB              39     120/ 10/ 10   N/A
BURNHAM HARBOR             36      CALM  /  2   N/A
CALUMET HARBOR             38      20/  2/  2 1012.6F
BURNS HARBOR               42     180/  9/ 12 1014.2F
MICHIGAN CITY              41     140/  6/  7   N/A
$$

ILZ025>027-034>036-040-047-049-050-058-095>099-212000-
WEST-CENTRAL ILLINOIS

CITY           SKY/WX    TMP DP  RH WIND       PRES   REMARKS
QUINCY         PTSUNNY   60  52  74 S13       29.81F
GALESBURG*     CLOUDY    47  45  92 SE6       29.85F
MACOMB*        CLOUDY    50  48  94 SE7       29.85F
JACKSONVILLE*  CLOUDY    60  52  76 S8        29.85F
PITTSFIELD*    CLOUDY    61  54  76 SE6       29.84F
$$

ILZ028>032-037-038-041>044-048-051>054-059>061-212000-
CENTRAL ILLINOIS

CITY           SKY/WX    TMP DP  RH WIND       PRES   REMARKS
PONTIAC        FOG       44  44  99 SE6       29.90F VSB 3/4
BLOOMINGTON    LGT RAIN  47  47 100 S9        29.89F VSB 1/4
DECATUR        CLOUDY    53  53 100 S10       29.90F
PEORIA         CLOUDY    49  46  90 SE5       29.87F FOG
LACON*         CLOUDY    46  46  99 SE3       29.87F FOG
LINCOLN*       CLOUDY    57  54  91 S9        29.88F
SPRINGFIELD    CLOUDY    61  54  77 S14       29.87F
TAYLORVILLE    CLOUDY    59  54  84 S20G26    29.89F
$$

ILZ033-039-045-046-055>057-062-063-212000-
EAST-CENTRAL ILLINOIS

CITY           SKY/WX    TMP DP  RH WIND       PRES   REMARKS
CHAMPAIGN      FOG       50  50 100 S14       29.92F VSB 1/4
DANVILLE*      FOG       48  48 100 S10       29.92F VSB 1/2
RANTOUL*       DRZL/FOG  49  49  99 S9        29.92F VSB 1/4
MATTOON        FOG       49  49 100 S10       29.93F VSB 1/4
PARIS*         CLOUDY    49  49 100 S13       29.96F FOG
$$

ILZ079-100>102-212000-
SOUTHWEST ILLINOIS

CITY           SKY/WX    TMP DP  RH WIND       PRES   REMARKS
ALTON          PTSUNNY   59  54  82 SE15      29.88F
BELLEVILLE     CLOUDY    59  53  80 S16       29.88F
CAHOKIA*       PTSUNNY   64  54  69 S12       29.87F
SPARTA*        CLOUDY    52  52 100 S12G17    29.94F FOG
$$

ILZ064>066-069>071-074>076-080>082-084>086-088>090-092>094-212000-
SOUTH-CENTRAL ILLINOIS

CITY           SKY/WX    TMP DP  RH WIND       PRES   REMARKS
CARBONDALE     CLOUDY    54  53  97 S15       29.97F FOG
CAIRO*         CLOUDY    52  50  94 S8        30.01F
EFFINGHAM*     CLOUDY    53  53 100 SE8       29.97F FOG
MARION         CLOUDY    52  52 100 S17       29.99F FOG
MT. VERNON     CLOUDY    52  52 100 S9        29.97F FOG
CENTRALIA*     CLOUDY    55  54  97 S9        29.94F FOG
SALEM*         CLOUDY    55  53  93 S8        29.95F FOG
METROPOLIS*    CLOUDY    56  52  86 S10       30.02F
$$

ILZ067-068-072-073-078-083-087-091-212000-
SOUTHEAST ILLINOIS

CITY           SKY/WX    TMP DP  RH WIND       PRES   REMARKS
LAWRENCEVILLE  CLOUDY    47  46  97 S13       30.00F FOG
FLORA*         FOG       50  50  99 S8        29.97F VSB 1/4
FAIRFIELD*     CLOUDY    51  51 100 S8        29.97F FOG
HARRISBURG*    CLOUDY    55  53  95 S12       30.00F
ROBINSON*      CLOUDY    48  48 100 S10       30.00F FOG
CARMI*         CLOUDY    49  49  99 S10       30.00F FOG
$$

ABBREVIATIONS USED IN REMARKS
   TC - TEMPERATURE IN CELSIUS
  WCI - WIND CHILL INDEX
   HX - HEAT INDEX
  VSB - VISIBILITY
$$





USA.gov is the U.S. government's official web portal to all federal, state and local government web resources and services.